CZ-6A DEB, 61269

Orbit data source: Space-Track

CZ-6A DEB, 61269 is space debris in LEO originally from a launch on Tue, 06 Aug 2024 UTC launched from the Taiyaun Space Center, China (TSC). Debris objects in space refer to the collection of defunct objects orbiting the Earth. Examples of debris include non-operational satellites, rocket bodies, and fragments generated from explosions, collisions, or faulty payload assembly.

Loading next visibility...
Identifier
61269, 2024-140SE
Orbit
LEO
Country
Flag of CNCN / PRC
Related business
Manufacturer
SAST
Mission
Spacecraft
Bus & Motor
Unknown
Mass
Unknown
Launch date (UTC)
2024-08-06 (1 year ago)
Launch vehicle
Unknown
Launch site
Taiyaun Space Center, China (TSC)
Object type
Payload
Rocket body
Debris
Shape & HBR
Unknown shape, 0.1 m
Radar Cross Section
Small (<0.1 m²)

Expand to show TLE details & history
Last TLE update: 6 hours ago

TLE from 6 hours ago
0 CZ-6A DEB
1 61269U 24140SE  25351.32658603  .00006649  00000-0  24584-2 0  9994
2 61269  89.0596 298.0216 0033051  35.3884 324.9497 14.31998440 68212
Epoch: 2025-12-17T07:50Z
TLE epoch observation values (Epoch: 2025-12-17T07:50:17.032Z)
Latitude
-0.00004°
Longitude
94.25259°
Altitude
768.769 km
Speed
7.48 km/s
True Right ascension
19h 52m 05s
True Declination
0° 00' 00"
Sunlit
Object was in daylight at epoch
Visualization orbit readout
Latitude
Unknown
Longitude
Unknown
Altitude
Unknown
Speed
Unknown
Apparent Right ascension
Unknown
Apparent Declination
Unknown
Sunlit
N/A
Visualization observer readout
Local Sidereal Time
12:49:58
Azimuth
Unknown
Elevation
Unknown
Doppler factor
Unknown
Orbital elements
Apogee altitude
805.657 km
Perigee altitude
758.327 km
Semi-major axis
7,160.129 km
Eccentricity
0.00331
Inclination
89.0596°
RAAN
298.0216°
Arg. of periapsis
35.3884°
True anomaly
324.73146°
Mean anomaly
324.9497°
Eccentric anomaly
324.84065°
Mean motion
3.5823 °/min
Orbital period
100.49 mins
BSTAR
0.0024584
Loading maneuver chart data...
Computing Atmospheric mass density...

Documentation

Showing up to 5 results
|